Weather in Kazarka

Russia / Penza Oblast     53°35′48″N   45°47′22″E
temp.,
°C
wind,
m/s
gust,
m/s
humid.,
%
clouds,
%
prec.,
mm/h
press.,
hPa
HPBL,
m
7 august, sun
sun700:00+17e22570 0.0 102028
03:00+16e22630 0.0 102118
06:00+18e22670 0.0 102157
09:00+25e23450 0.0 1020531
12:00+29ene13335 0.0 10202661
15:00+24e2353100 0.0 1019117
18:00+24ne115634 0.0 101812
21:00+20ese226223 0.0 101914
8 august, mon
mon800:00+18e226423 0.0 101921
03:00+19ese116345 0.0 101921
06:00+19ese11715 0.0 102013
09:00+26ene11470 0.0 1020442
12:00+29ne22321 0.0 10202667
15:00+29nne333019 0.0 10192756
18:00+25ne245623 0.0 1019102
21:00+19ese22635 0.0 102013
9 august, tue
tue900:00+18ene116637 0.0 102011
03:00+17ese116832 0.0 102011
06:00+19ese116933 0.0 102114
09:00+26ene12465 0.0 1020457
12:00+29ene23330 0.0 10202282
15:00+29ne22326 0.0 10192587
18:00+26ne11539 0.0 101816
21:00+20se22607 0.0 101920
10 august, wed
wed1000:00+19sse226315 0.0 101919
03:00+18s23655 0.0 101858
06:00+19sse24698 0.0 101889
09:00+26ssw2445100 0.0 1018587
12:00+30ssw3433100 0.0 10171933
15:00+28wnw2442100 0.0 1016454
18:00+25e3554100 0.0 1017103
21:00+20sse1164100 0.1 101721
11 august, thu
thu1100:00+18ene2480100 0.1 101777
03:00+16n2596100 0.2 1018109
06:00+17nw4796100 0.1 1019292
09:00+19nnw3482100 0.4 1019498
12:00+22nnw4558100 0.1 1019781
15:00+24nnw45394 0.1 10191424
18:00+21n47600 0.0 1020706
21:00+15nne38880 0.0 1022231